Regional Weather Roundup
Issued by NWS

Home | Current Version | Previous Version | Text Only | Print | Product List | Glossary On
Versions: 1 2 3 4 5 6 7 8 9 10 11 12 13 14 15 16 17 18 19 20 21 22 23 24 25 26 27 28 29 30 31 32 33 34 35 36 37 38 39 40 41 42 43 44 45 46 47 48 49 50
000
ASUS44 KOUN 282210
RWROK

WEATHER ROUNDUP FOR OKLAHOMA
NATIONAL WEATHER SERVICE NORMAN OK
500 PM CDT FRI APR 28 2017

NOTE: "FAIR" INDICATES FEW OR NO CLOUDS BELOW 12,000 FEET WITH NO
      SIGNIFICANT WEATHER AND/OR OBSTRUCTIONS TO VISIBILITY.

OKZ001>007-009>012-014-015-017-282300-
NORTHWEST OKLAHOMA AND THE PANHANDLE

CITY           SKY/WX    TMP DP  RH WIND       PRES   REMARKS
GAGE           PTSUNNY   72  41  32 E10       29.65F
GUYMON         LGT RAIN  52  47  83 NW17      29.72S
ENID/WOODRING  PTSUNNY   77  55  47 E12       29.62S
$$

OKZ016-021>023-033>039-044-045-282300-
SOUTHWEST OKLAHOMA

CITY           SKY/WX    TMP DP  RH WIND       PRES   REMARKS
LAWTON/REGL    CLOUDY    81  61  50 E13G24    29.58S
LAWTON/FT SILL MOSUNNY   80  62  53 E13       29.58R
FREDERICK      MOSUNNY   84  55  36 E18G24    29.54F
CLINTON        SUNNY     76  48  37 E12       29.63S
HOBART         MOSUNNY   79  56  45 E9        29.60F
ALTUS AFB      MOSUNNY   82  50  31 SE10G18   29.57S
$$

OKZ018>020-024>031-282300-
CENTRAL OKLAHOMA

CITY           SKY/WX    TMP DP  RH WIND       PRES   REMARKS
OKLAHOMA CITY  CLOUDY    77  58  51 NE9       29.61S
OKC/WILEY POST CLOUDY    78  59  51 NE10      29.62S
OKC/TINKER AFB MOSUNNY   76  61  57 SE10      29.61R
GUTHRIE        CLOUDY    76  53  44 E12       29.62S
$$

OKZ008-013-054>072-282300-
NORTHEAST OKLAHOMA

CITY           SKY/WX    TMP DP  RH WIND       PRES   REMARKS
TULSA          CLOUDY    74  63  68 NE9       29.63S
TULSA/JONES    CLOUDY    77  60  55 S8        29.63S
PONCA CITY     CLOUDY    73  55  53 E9        29.65R
BARTLESVILLE   PTSUNNY   73  58  59 E6        29.67R
MUSKOGEE       CLOUDY    73  65  75 SE9       29.65F
$$

OKZ032-040>043-046>053-073>077-282300-
SOUTH CENTRAL/SOUTHEAST OKLAHOMA

CITY           SKY/WX    TMP DP  RH WIND       PRES   REMARKS
ARDMORE/DWNTWN PTSUNNY   79  63  57 S5        29.59S
MCALESTER      MOSUNNY   79  67  66 VRB5      29.63S
$$




USA.gov is the U.S. government's official web portal to all federal, state and local government web resources and services.